Temp
71 72 73 72 71 71 71 72 73 73 73 74 73 73 73 74 74 74 74 73 72 72 72 72 72 72 71 70 69 69 66 67
68 69 70 70 71 71 71 72 72 72 73 73 72 73 72 73 73 73 73 72 72 72 72 71 72 71 70 69 69 69 65 65
67 68 68 68 69 71 71 72 72 72 72 71 70 71 71 71 72 72 72 71 71 71 71 71 70 71 70 69 69 67 65 65
67 67 68 68 71 71 69 71 70 70 70 69 69 69 70 70 71 71 71 70 71 70 70 69 70 72 71 70 67 66 65 64
68 68 68 69 71 70 70 71 69 69 69 68 68 69 69 68 68 68 68 70 71 71 70 68 70 68 66 65 65 65 64 66
69 70 69 69 71 70 70 69 69 68 68 68 68 67 67 67 67 67 68 69 69 69 69 68 69 68 66 65 65 64 63 66
70 69 69 69 70 70 69 69 69 68 68 69 69 67 66 67 67 67 68 67 67 68 68 67 67 67 66 66 64 63 63 66
70 69 69 69 71 70 69 69 69 69 68 68 69 68 68 68 67 68 68 67 68 68 68 66 66 66 66 67 65 63 61 61
69 69 69 69 70 70 69 69 69 68 68 68 68 68 68 69 68 67 66 67 65 66 65 65 65 66 65 66 65 62 61 60
71 72 69 69 70 69 69 68 68 67 67 67 66 69 69 69 67 67 67 67 65 65 65 65 64 65 65 65 64 63 60 59
71 71 70 69 70 70 68 68 67 67 66 66 66 67 67 67 69 67 68 65 65 65 64 65 64 64 65 64 64 63 63 64
71 71 70 70 69 69 68 67 67 66 65 65 66 66 67 66 67 68 68 65 65 65 65 65 64 63 64 60 61 63 61 62
69 70 70 69 67 66 66 65 65 65 65 65 65 65 65 65 66 67 68 66 67 66 65 63 61 60 59 58 57 59 58 61
51 56 69 70 69 68 68 66 65 65 65 65 65 65 65 64 65 66 67 66 65 65 65 62 59 62 60 57 54 56 59 60
51 52 57 69 71 69 68 66 65 64 64 64 64 65 65 64 66 66 67 66 65 64 64 63 60 62 63 58 53 53 55 58
50 52 56 65 69 68 66 65 63 65 64 65 65 65 66 66 66 67 67 67 65 64 64 63 63 59 63 63 59 56 52 52
48 51 54 58 63 69 67 66 66 67 65 64 64 65 66 67 65 65 66 65 65 65 63 61 62 63 63 63 57 56 55 53
47 49 51 54 58 60 67 67 66 64 64 63 63 65 65 67 66 65 65 65 65 64 64 62 62 64 65 63 61 57 56 53
46 47 49 51 54 58 60 67 67 65 64 64 64 64 65 65 67 66 65 66 65 65 64 63 62 63 62 62 64 62 60 57
45 45 47 49 51 53 58 59 65 66 68 67 66 66 66 68 67 68 67 66 66 65 65 65 64 64 62 64 63 65 61 60
MSLP
1008.85 1009.23 1009.63 1010.14 1010.48 1010.75 1011.12 1011.54 1011.87 1012.21 1012.49 1012.90 1013.15 1013.61 1014.05 1014.45 1014.65 1014.75 1015.15 1015.77 1016.49 1016.98 1017.54 1018.19 1018.70 1019.13 1019.40 1019.89 1020.23 1020.57 1021.07 1021.56
1009.22 1009.37 1009.70 1010.27 1010.67 1010.86 1011.32 1011.75 1012.02 1012.30 1012.69 1013.09 1013.53 1013.84 1014.23 1014.68 1014.82 1014.96 1015.37 1015.91 1016.80 1017.08 1017.94 1018.54 1018.89 1019.37 1019.70 1020.28 1020.60 1020.98 1021.48 1021.92
1009.18 1009.53 1009.82 1010.31 1010.78 1011.11 1011.47 1011.97 1012.21 1012.51 1013.02 1013.57 1013.88 1014.21 1014.70 1015.06 1015.22 1015.31 1015.77 1016.23 1016.94 1017.15 1018.19 1018.79 1019.13 1019.55 1020.08 1020.59 1020.79 1021.43 1021.84 1022.23
1009.25 1009.49 1009.84 1010.25 1010.71 1011.17 1011.66 1012.04 1012.49 1012.81 1013.28 1013.77 1014.06 1014.53 1014.89 1015.24 1015.53 1015.62 1016.04 1016.69 1017.11 1017.49 1018.38 1019.00 1019.46 1019.87 1020.43 1020.76 1021.29 1021.67 1022.17 1022.49
1008.80 1009.28 1009.49 1010.05 1010.53 1011.06 1011.64 1011.90 1012.55 1013.00 1013.34 1013.74 1014.30 1014.67 1015.17 1015.50 1015.98 1016.22 1016.66 1016.90 1017.26 1017.91 1018.69 1019.19 1019.66 1020.02 1020.68 1021.25 1021.66 1021.98 1022.38 1022.61
1008.87 1009.13 1009.44 1009.77 1010.20 1010.78 1011.28 1011.72 1012.26 1012.83 1013.31 1013.57 1013.85 1014.53 1014.95 1015.34 1015.89 1016.34 1016.58 1017.10 1017.39 1017.96 1018.74 1019.34 1019.76 1020.29 1020.92 1021.55 1021.97 1022.31 1022.59 1022.77
1008.36 1008.84 1009.30 1009.69 1010.11 1010.72 1011.11 1011.65 1011.96 1012.51 1013.09 1013.44 1013.65 1013.96 1014.78 1015.23 1015.72 1016.27 1016.58 1017.06 1017.38 1018.06 1018.67 1019.48 1019.96 1020.50 1021.10 1021.59 1022.26 1022.57 1022.74 1022.98
1007.99 1008.70 1009.03 1009.34 1009.87 1010.44 1010.99 1011.31 1011.76 1012.24 1012.81 1013.21 1013.52 1013.77 1014.61 1014.89 1015.37 1015.96 1016.52 1017.22 1017.66 1018.14 1018.69 1019.52 1020.08 1020.60 1021.26 1021.65 1022.29 1022.73 1023.03 1023.44
1007.46 1007.91 1008.47 1009.14 1009.32 1010.06 1010.69 1011.07 1011.58 1012.03 1012.49 1013.09 1013.29 1013.59 1014.22 1014.86 1015.53 1016.21 1016.76 1017.26 1017.65 1018.39 1019.03 1019.71 1020.17 1020.76 1021.32 1021.83 1022.22 1022.93 1023.32 1023.64
1006.13 1007.01 1007.46 1008.23 1008.84 1009.37 1010.05 1010.66 1011.32 1011.94 1012.37 1013.03 1013.45 1013.46 1014.12 1014.91 1015.59 1016.17 1016.55 1017.09 1017.63 1018.41 1019.20 1019.90 1020.40 1020.85 1021.48 1021.93 1022.34 1023.03 1023.62 1023.82
1005.16 1006.02 1007.15 1007.46 1008.32 1008.75 1009.54 1010.33 1011.21 1011.77 1012.23 1012.82 1013.29 1013.49 1014.24 1014.76 1015.33 1016.06 1016.60 1017.23 1017.78 1018.51 1019.31 1019.73 1020.48 1021.16 1021.55 1022.10 1022.43 1022.97 1023.49 1023.82
1005.69 1005.35 1006.20 1006.88 1008.17 1008.72 1009.46 1009.95 1010.76 1011.47 1012.06 1012.57 1013.11 1013.31 1014.06 1015.14 1015.24 1015.75 1016.50 1017.31 1017.82 1018.40 1019.26 1019.88 1020.26 1021.08 1021.72 1022.41 1022.96 1023.12 1023.52 1023.82
1007.40 1006.50 1005.92 1006.60 1007.48 1008.02 1008.41 1009.21 1010.19 1011.19 1011.75 1012.24 1012.77 1013.12 1014.23 1014.46 1015.19 1015.56 1016.21 1016.91 1017.56 1018.10 1019.06 1019.76 1020.54 1020.98 1021.52 1022.95 1023.59 1023.72 1023.80 1023.77
1009.82 1008.83 1006.61 1005.32 1006.02 1006.73 1006.99 1007.81 1009.06 1010.35 1011.49 1012.02 1012.45 1013.21 1013.88 1014.31 1014.55 1015.49 1016.02 1016.64 1017.43 1017.96 1018.56 1019.58 1020.32 1020.44 1021.22 1022.51 1023.58 1023.98 1023.71 1023.66
1011.10 1009.92 1008.69 1006.67 1005.59 1006.53 1007.53 1008.28 1009.43 1010.08 1010.74 1011.43 1012.02 1012.66 1013.42 1013.77 1014.10 1014.43 1015.37 1016.17 1016.88 1017.43 1017.99 1018.54 1019.66 1020.45 1020.61 1021.14 1022.81 1023.17 1023.49 1023.45
1011.72 1010.26 1008.88 1006.89 1006.74 1006.66 1006.14 1006.56 1007.60 1008.23 1009.57 1010.79 1011.55 1012.20 1012.70 1013.23 1013.94 1014.62 1015.53 1016.22 1016.90 1017.16 1017.48 1017.93 1018.63 1019.60 1020.59 1020.41 1020.80 1021.65 1022.76 1023.54
1012.38 1010.92 1009.60 1008.11 1007.08 1006.49 1006.34 1006.01 1006.72 1007.44 1008.91 1010.26 1011.14 1011.88 1012.27 1012.70 1013.44 1013.68 1013.93 1015.13 1016.16 1016.61 1017.32 1017.70 1018.10 1018.73 1019.08 1019.74 1020.61 1021.19 1021.51 1022.13
1012.83 1011.70 1010.47 1009.43 1008.08 1007.54 1006.28 1006.32 1006.09 1006.93 1008.17 1009.42 1010.48 1011.24 1011.92 1012.17 1012.88 1013.38 1013.76 1014.71 1015.31 1015.76 1016.28 1017.02 1017.79 1018.20 1018.57 1018.93 1019.41 1020.17 1020.67 1021.10
1013.50 1012.53 1011.20 1009.98 1008.57 1007.87 1007.12 1006.65 1006.70 1005.98 1006.84 1007.48 1009.27 1010.20 1010.84 1011.24 1011.79 1012.56 1013.33 1013.94 1014.68 1014.91 1015.77 1016.50 1017.10 1017.63 1017.96 1018.29 1018.72 1019.04 1019.44 1020.11
1014.21 1013.22 1011.92 1010.56 1009.51 1008.70 1007.41 1007.10 1006.47 1006.70 1005.87 1005.50 1007.26 1008.21 1009.38 1010.71 1011.37 1012.01 1012.70 1013.19 1013.77 1014.36 1015.02 1015.33 1016.07 1016.71 1017.18 1017.50 1018.11 1018.32 1018.67 1019.11
Wind_Speed
10 11 12 12 12 15 16 17 18 19 20 20 18 19 19 20 19 19 19 19 16 16 16 14 13 11 12 17 18 18 11 7
9 9 9 7 9 16 16 17 18 19 18 19 18 19 18 17 18 19 18 19 16 17 15 13 12 11 20 18 19 17 9 7
9 9 8 7 7 12 16 17 18 19 17 18 14 8 12 13 12 16 16 17 16 17 14 12 11 14 18 19 15 7 8 4
9 9 10 9 8 11 11 12 10 10 11 13 7 8 8 9 10 11 12 14 14 15 13 12 8 11 9 13 6 9 6 4
12 12 12 11 11 9 7 7 7 7 13 11 8 7 7 7 6 5 4 9 7 9 8 4 6 7 6 7 8 8 4 4
11 12 12 12 9 8 9 9 8 7 9 12 9 6 8 8 7 8 5 4 8 8 5 5 6 10 11 9 8 7 4 4
13 14 12 12 12 8 8 9 8 9 9 10 8 8 7 8 9 9 7 5 6 8 7 5 9 10 9 11 9 8 6 4
14 14 13 14 14 12 8 9 9 9 9 9 9 9 8 9 8 8 8 7 6 7 7 6 7 8 10 10 10 8 6 5
16 16 15 14 15 12 9 9 9 9 8 10 9 10 11 10 8 9 8 7 8 6 7 7 7 7 10 8 9 8 6 6
19 15 19 17 16 13 10 8 8 8 8 8 8 12 12 10 8 7 6 7 6 6 7 8 7 8 8 7 8 8 6 6
20 20 20 20 17 13 12 12 9 8 7 7 9 9 10 7 7 7 8 6 6 7 6 10 8 6 7 7 7 7 7 7
17 18 20 19 13 11 10 10 10 9 8 9 10 8 11 10 6 10 8 7 6 8 9 8 10 8 8 6 4 4 4 6
9 15 19 15 13 14 12 13 10 10 9 12 10 9 7 7 4 9 8 10 10 12 11 11 6 9 7 6 4 3 3 4
21 18 16 21 15 15 13 14 12 11 11 12 13 13 10 8 6 5 9 9 13 13 13 8 3 9 7 4 3 1 2 4
20 19 18 15 19 11 10 9 8 9 13 14 13 14 14 11 8 5 9 7 9 14 13 13 10 6 12 5 4 4 2 2
20 18 18 9 12 13 22 17 16 12 12 12 15 17 18 16 15 16 12 9 9 10 11 10 12 10 8 2 2 6 4 2
19 19 16 11 9 16 15 18 13 10 12 15 16 17 17 19 17 15 18 8 11 12 11 10 10 10 9 8 2 2 1 4
19 21 18 17 13 13 19 20 18 14 15 13 12 12 14 20 18 13 11 13 14 12 12 12 10 11 10 9 6 5 4 4
20 20 19 17 15 10 8 15 16 23 20 16 17 14 14 18 20 17 11 13 14 13 13 13 13 12 13 9 9 5 4 3
21 23 19 19 16 14 9 9 10 13 20 16 16 16 15 18 18 17 16 14 15 14 12 13 14 14 15 12 9 9 4 4
Wind_Direction
146 150 151 155 154 145 145 148 147 144 144 143 138 140 140 141 139 134 131 127 128 122 121 121 123 116 119 115 110 104 96 102
147 144 143 148 160 147 149 148 147 145 140 143 143 144 140 142 139 136 135 133 135 124 124 126 120 109 122 119 111 103 102 101
150 148 144 142 147 155 150 151 144 141 136 132 125 145 138 135 141 135 137 133 137 127 126 128 118 125 118 120 109 110 109 111
161 154 150 148 154 155 154 154 149 148 144 143 140 140 140 138 141 138 130 136 135 123 135 125 117 131 123 110 112 111 108 106
168 162 155 154 164 158 159 156 155 152 153 151 151 146 153 152 151 151 144 134 139 130 129 121 124 111 96 104 113 112 113 116
171 162 159 158 158 164 165 164 163 160 163 158 160 159 161 159 162 168 162 151 145 138 139 129 110 117 117 116 116 120 118 117
173 161 161 160 161 167 167 171 165 164 167 167 170 160 157 154 157 167 175 142 147 146 148 129 126 124 124 126 125 127 118 119
169 168 163 161 170 170 168 171 169 164 169 171 168 156 162 159 160 157 158 157 158 153 142 128 134 129 130 129 133 124 102 104
180 170 163 170 169 163 168 170 174 167 166 162 167 165 167 163 160 168 154 156 137 144 121 126 127 126 131 133 127 124 126 125
177 174 171 170 175 168 167 160 164 167 165 156 164 162 163 158 160 163 154 154 141 143 134 139 133 137 135 134 130 135 136 132
176 173 180 173 177 171 162 158 161 165 159 155 151 157 155 151 162 161 158 150 146 146 142 148 140 138 134 133 137 147 155 153
198 176 176 171 171 164 167 162 161 166 162 159 152 146 159 167 182 167 159 159 153 148 148 153 146 141 123 92 89 141 150 167
245 190 176 167 172 177 167 171 163 169 168 164 155 148 150 147 181 172 164 169 170 160 149 144 137 129 107 85 63 63 148 181
352 332 205 182 177 186 176 165 165 159 167 178 171 178 178 159 168 180 172 172 161 163 156 146 113 161 140 113 129 309 252 204
342 333 318 213 184 168 162 150 157 162 176 181 182 176 178 170 191 187 237 169 181 167 161 160 154 178 169 138 145 200 145 203
341 340 334 258 196 187 171 173 170 183 178 179 181 184 178 178 184 196 202 194 181 181 170 161 155 171 187 168 126 138 175 197
345 345 341 342 306 202 193 178 182 164 167 174 183 192 190 192 198 197 187 186 193 178 176 164 176 173 181 184 157 164 143 136
347 349 344 339 349 332 201 200 176 161 167 174 182 188 197 203 200 198 188 192 188 174 177 170 184 194 195 192 183 164 185 157
352 345 345 342 345 339 326 216 196 175 169 173 184 191 194 201 200 195 191 182 181 174 173 191 191 199 193 190 201 198 155 153
348 348 344 348 344 335 316 312 214 204 189 184 188 189 191 195 198 194 194 192 183 185 198 198 196 202 197 196 204 209 173 172